TimeEST,TemperatureF,Dew PointF,Humidity,Sea Level PressureIn,VisibilityMPH,Wind Direction,Wind SpeedMPH,Gust SpeedMPH,PrecipitationIn,Events,Conditions,WindDirDegrees,DateUTC
12:56 AM,24.1,23.0,96,30.50,10.0,Calm,Calm,-,N/A,,Clear,0,2012-11-15 05:56:00
1:56 AM,23.0,21.0,92,30.49,10.0,Calm,Calm,-,N/A,,Clear,0,2012-11-15 06:56:00
2:56 AM,25.2,22.1,88,30.46,10.0,East,5.8,-,N/A,,Clear,80,2012-11-15 07:56:00
3:56 AM,24.1,22.1,92,30.47,10.0,East,4.6,-,N/A,,Clear,80,2012-11-15 08:56:00
4:56 AM,25.2,22.1,88,30.48,10.0,Calm,Calm,-,N/A,,Clear,0,2012-11-15 09:56:00
5:56 AM,25.2,21.0,84,30.48,10.0,East,3.5,-,N/A,,Clear,100,2012-11-15 10:56:00
6:22 AM,24.8,21.2,86,30.43,10.0,East,4.6,-,N/A,,Clear,80,2012-11-15 11:22:00
6:56 AM,25.2,21.0,84,30.49,10.0,East,3.5,-,N/A,,Clear,80,2012-11-15 11:56:00
7:56 AM,26.1,22.1,85,30.48,10.0,East,5.8,-,N/A,,Clear,80,2012-11-15 12:56:00
8:56 AM,28.0,24.1,85,30.47,10.0,ENE,3.5,-,N/A,,Clear,70,2012-11-15 13:56:00
9:56 AM,31.1,25.2,79,30.46,10.0,Calm,Calm,-,N/A,,Clear,0,2012-11-15 14:56:00
10:56 AM,34.0,26.1,73,30.45,10.0,SSE,4.6,-,N/A,,Clear,160,2012-11-15 15:56:00
11:56 AM,37.9,24.1,57,30.42,10.0,SSE,4.6,-,N/A,,Clear,150,2012-11-15 16:56:00
12:56 PM,39.9,23.0,51,30.40,10.0,Calm,Calm,-,N/A,,Clear,0,2012-11-15 17:56:00
1:56 PM,41.0,22.1,47,30.38,10.0,Calm,Calm,-,N/A,,Clear,0,2012-11-15 18:56:00
2:56 PM,43.0,24.1,47,30.38,10.0,SSW,3.5,-,N/A,,Clear,200,2012-11-15 19:56:00
3:56 PM,41.9,25.2,52,30.36,10.0,Calm,Calm,-,N/A,,Clear,0,2012-11-15 20:56:00
4:56 PM,34.9,24.1,65,30.36,10.0,Calm,Calm,-,N/A,,Clear,0,2012-11-15 21:56:00
5:56 PM,30.0,24.1,79,30.37,10.0,Calm,Calm,-,N/A,,Clear,0,2012-11-15 22:56:00
6:56 PM,28.0,24.1,85,30.37,10.0,ENE,4.6,-,N/A,,Clear,70,2012-11-15 23:56:00
7:56 PM,29.1,23.0,78,30.37,10.0,East,4.6,-,N/A,,Clear,80,2012-11-16 00:56:00
8:56 PM,29.1,23.0,78,30.36,10.0,ENE,6.9,-,N/A,,Clear,70,2012-11-16 01:56:00
9:56 PM,28.0,23.0,81,30.36,10.0,ENE,5.8,-,N/A,,Clear,70,2012-11-16 02:56:00
10:56 PM,27.1,23.0,84,30.36,10.0,East,4.6,-,N/A,,Clear,80,2012-11-16 03:56:00
11:56 PM,26.1,23.0,88,30.36,10.0,East,4.6,-,N/A,,Clear,80,2012-11-16 04:56:00